Flag for United Kingdom Weather past 2 weeks in Brentwood, England, United Kingdom

Now
55 °F

Cool.


Feels Like: 52 °F
Forecast: 50 / 59 °F
Wind: 10 mph from Southwest

Location: Gravesend-Broadness

Current Time: May 28, 2015 at 12:02:48 AM

Latest Report: May 27, 2015 at 11:00 PM


Visibility: N/A

Pressure: 29.99 "Hg

Humidity: 71%

Dew point: 46 °F

Location of BrentwoodLocation

Historic Weather in Brentwood — Graph

°F

Brentwood temperature yesterday

Maximum temperature yesterday: 70 °F (at 4:00 PM)
Minimum temperature yesterday: 47 °F (at 5:00 AM)
Average temperature yesterday: 58 °F

Past Weeks' High & Low Weather Summary

 TemperatureHumidityPressure
High70 °F (May 24, 2:00 PM)96% (May 15, 12:00 AM)30.35 "Hg (May 15, 12:00 AM)
Low43 °F (May 20, 5:00 AM)34% (May 13, 1:00 PM)29.59 "Hg (May 18, 2:00 PM)
Average55 °F68%30.09 "Hg
* Reported May 12 9:00 PM — May 27 9:00 PM, Brentwood, Weather by CustomWeather, © 2015

Note: Actual official high and low records may vary slightly from our data, if they occured in-between our weather recording intervals... More about our weather records

Advertising

Brentwood weather history for previous 24 hours

 ConditionsComfort  
Time TempWeatherWind HumidityBarometerVisibility
9:00 PM
Wed, May 27
58 °FCool.13 mph67%30.01 "HgN/A
8:00 PM59 °FCool.13 mph62%30.04 "HgN/A
7:00 PM61 °FRefreshingly cool.14 mph60%30.06 "HgN/A
6:00 PM64 °FMild.14 mph51%30.07 "HgN/A
5:00 PM68 °FMild.12 mph45%30.09 "HgN/A
4:00 PM70 °FMild.12 mph41%30.12 "HgN/A
3:00 PM69 °FMild.8 mph40%30.15 "HgN/A
2:00 PM66 °FMild.9 mph38%30.18 "HgN/A
1:00 PM65 °FMild.7 mph43%30.21 "HgN/A
12:00 PM62 °FRefreshingly cool.5 mph48%30.23 "HgN/A
11:00 AM60 °FRefreshingly cool.7 mph55%30.26 "HgN/A
10:00 AM56 °FCool.6 mph60%30.28 "HgN/A
9:00 AM54 °FCool.6 mph65%30.28 "HgN/A
8:00 AM51 °FCool.8 mph70%30.29 "HgN/A
7:00 AM49 °FCool.8 mph74%30.29 "HgN/A
6:00 AM47 °FCool.9 mph78%30.29 "HgN/A
5:00 AM47 °FCool.9 mph77%30.28 "HgN/A
3:00 AM49 °FCool.8 mph73%30.31 "HgN/A
2:00 AM50 °FCool.8 mph72%30.30 "HgN/A
1:00 AM52 °FCool.10 mph69%30.30 "HgN/A
12:00 AM54 °FCool.9 mph67%30.29 "HgN/A
Weather by CustomWeather, © 2015

See weather overviewHow to use our weather pages